Regional Weather Roundup
Issued by NWS

Home | Current Version | Previous Version | Text Only | Print | Product List | Glossary On
Versions: 1 2 3 4 5 6 7 8 9 10 11 12 13 14 15 16 17 18 19 20 21 22 23 24 25 26 27 28 29 30 31 32 33 34 35 36 37 38 39 40 41 42 43 44 45 46 47 48 49 50
000
ASUS43 KDTX 020310
RWRMI
MICHIGAN HOURLY REGIONAL WEATHER ROUNDUP
NATIONAL WEATHER SERVICE DETROIT/PONTIAC MI
1100 PM EDT TUE SEP 01 2015

NOTE: "FAIR" INDICATES FEW OR NO CLOUDS BELOW 12,000 FEET WITH NO
SIGNIFICANT WEATHER AND/OR OBSTRUCTION TO VISIBILITY.

MIZ047>049-052>055-059>063-066>070-074>076-081>083-020400-
SOUTHEAST LOWER MICHIGAN

CITY           SKY/WX    TMP DP  RH WIND       PRES   REMARKS
ADRIAN         CLEAR     74  67  78 W3        30.08S
ALMA           CLEAR     73  71  96 CALM      30.04S FOG
ANN ARBOR      CLEAR     69  67  93 S5        30.07R
BAD AXE        CLEAR     69  67  94 CALM      30.05S FOG
DETROIT CITY   PTCLDY    78  69  73 S5        30.06R
DETROIT        PTCLDY    77  70  79 S5        30.06S
FLINT          CLEAR     74  67  78 S3        30.05S
GROSSE ILE     CLEAR     75  72  88 CALM      30.05S
HILLSDALE      CLEAR     74  73  96 SW5       30.09S
HOWELL         CLEAR     73  67  81 CALM      30.06S

CITY           SKY/WX    TMP DP  RH WIND       PRES   REMARKS
JACKSON        PTCLDY    73  68  84 SW3       30.07S
LAMBERTVILLE   CLEAR     77  69  74 W5        30.08R
LANSING        CLEAR     75  69  81 SW5       30.06S
LAPEER         NOT AVBL
MASON          CLEAR     73  66  78 CALM      30.07R
MONROE         CLEAR     75  68  79 SW5       30.06S
MT. CLEMENS    PTCLDY    73  69  87 S5        30.04R FOG
PONTIAC        PTCLDY    75  68  78 CALM      30.06S
PORT HOPE        N/A     73  69  87 VRB3      30.02S
PORT HURON     CLEAR     72  70  94 S5        30.05S
TRI CITIES     PTCLDY    77  69  76 S5        30.04R
YPSILANTI      CLEAR     76  68  76 SW6       30.07R
$$
MIZ043>046-050>051-056>058-064>065-071>073-077>080-020400-
SOUTHWEST LOWER MICHIGAN

CITY           SKY/WX    TMP DP  RH WIND       PRES   REMARKS
BATTLE CREEK   CLEAR     74  68  81 SW6       30.07S
BENTON HARBOR  CLEAR     77  70  79 S6        30.05R
BIG RAPIDS     CLEAR     71  69  96 CALM      30.04S FOG
COLDWATER      CLEAR     74  72  92 CALM      30.08S
HOLLAND        CLEAR     75  70  84 S5        30.04S
GRAND RAPIDS   CLEAR     74  72  93 S6        30.05R FOG
KALAMAZOO      CLEAR     75  69  81 S6        30.07R
MARSHALL       CLEAR     73  67  83 CALM      30.07R
MUSKEGON       MOCLDY    78  69  73 S13       30.02S
$$
MIZ016>042-020400-
NORTHERN LOWER MICHIGAN

CITY           SKY/WX    TMP DP  RH WIND       PRES   REMARKS
ALPENA         PTCLDY    69  65  86 SW3       30.00S
BEAVER ISLAND  PTCLDY    72  69  90 SW13      29.98R FOG
BELLAIRE       CLEAR     71  69  92 CALM      29.99S
CADILLAC       CLEAR     71  69  93 SW3       30.04S
CHARLEVOIX     CLEAR     76  68  77 SW6       30.01R
FRANKFORT      CLEAR     76  72  86 CALM      29.99R
GAYLORD        CLEAR     72  70  93 SW5       30.03S
GRAYLING       CLEAR     71  68  92 CALM      30.04S
HARBOR SPRINGS PTCLDY    71  69  94 CALM      29.99R
HOUGHTON LAKE  CLEAR     70  68  93 S3        30.04S FOG
MANISTEE       PTCLDY    73  68  83 CALM      30.00S
OSCODA         CLEAR     69  67  92 SW3       30.01S
PELLSTON       CLEAR     70  68  93 CALM      29.99R
TRAVERSE CITY  CLEAR     77  70  79 CALM      29.98S
$$
MIZ007>008-015-020400-
EASTERN UPPER MICHIGAN

CITY           SKY/WX    TMP DP  RH WIND       PRES   REMARKS
KINROSS        CLEAR     70  70 100 S5        29.98S
MACKINAC ISLAN PTCLDY    72  69  91 SW3       29.98S
NEWBERRY       MOCLDY    69  69  97 S8        29.96S FOG
S. S. MARIE    PTCLDY    70  67  90 SE3       29.98R
$$
MIZ004>006-011>014-085-020400-
CENTRAL UPPER MICHIGAN

CITY           SKY/WX    TMP DP  RH WIND       PRES   REMARKS
MANISTIQUE     PTCLDY    65  64  96 S6        29.96R FOG
ESCANABA       PTCLDY    70  66  88 CALM      29.94S
MENOMINEE      MOCLDY    75  66  73 SW3       29.94S
SAWYER-GWINN   PTCLDY    73  67  79 CALM      29.97S
$$
MIZ001>003-009>011-084-020400-
WESTERN UPPER MICHIGAN

CITY           SKY/WX    TMP DP  RH WIND       PRES   REMARKS
IRON MOUNTAIN  PTCLDY    71  67  87 CALM      29.96R
HOUGHTON       MOCLDY    70  68  93 NW7       29.95R FOG
IRONWOOD       PTCLDY    72  72 100 CALM      29.94S
$$

ABBREVIATIONS USED IN REMARKS
   TC - TEMPERATURE IN CELSIUS
  WCI - WIND CHILL INDEX
   HX - HEAT INDEX
  VSB - VISIBILITY



USA.gov is the U.S. government's official web portal to all federal, state and local government web resources and services.